Flag for U.S.A. Weather past 2 weeks in Everett, Washington, U.S.A.

Now
47 °F

Fog.


Feels Like: 45 °F
Forecast: 46 / 53 °F
Wind: 5 mph from North

Location: Snohomish County Airport

Current Time: Jan 27, 2015 at 5:56:43 PM

Latest Report: Jan 27, 2015 at 4:58 PM


Visibility: 1 mi

Pressure: 30.14 "Hg

Humidity: 93%

Dew point: 45 °F

Location of EverettLocation

Historic Weather in Everett — Graph

°F

Everett temperature yesterday

Maximum temperature yesterday: 63 °F (at 1:53 PM)
Minimum temperature yesterday: 44 °F (at 4:01 AM)
Average temperature yesterday: 51 °F

Past Weeks' High & Low Weather Summary

 TemperatureHumidityPressure
High63 °F (Jan 25, 1:53 PM)100% (Jan 12, 8:53 PM)30.47 "Hg (Jan 12, 8:53 PM)
Low33 °F (Jan 14, 5:03 AM)47% (Jan 25, 1:53 PM)29.57 "Hg (Jan 17, 11:53 PM)
Average46 °F83%30.19 "Hg
* Reported Jan 12 3:53 PM — Jan 27 3:53 PM, Everett, Weather by CustomWeather, © 2014

Note: Actual official high and low records may vary slightly from our data, if they occured in-between our weather recording intervals... More about our weather records

Advertising

Everett weather history for previous 24 hours

 ConditionsComfort  
Time TempWeatherWind HumidityBarometerVisibility
3:53 PM
Jan 27
50 °FOvercast.No wind89%30.12 "Hg10 mi
2:53 PM50 °FOvercast.No wind86%30.11 "Hg10 mi
1:53 PM49 °FLow clouds.6 mph90%30.10 "Hg10 mi
12:52 PM49 °FFog.7 mph93%30.09 "Hg6 mi
12:00 PM49 °FFog.8 mph93%30.08 "Hg1 mi
10:53 AM49 °FFog.7 mph93%30.08 "Hg3 mi
9:56 AM49 °FLight rain. Fog.7 mph90%30.06 "Hg2 mi
8:53 AM50 °FPartly sunny.8 mph83%30.05 "Hg10 mi
7:58 AM48 °FPartly sunny.7 mph89%30.03 "Hg10 mi
6:53 AM49 °FOvercast.10 mph86%30.01 "Hg10 mi
5:53 AM49 °FOvercast.6 mph86%30.00 "Hg10 mi
4:53 AM48 °FClear.3 mph89%29.99 "Hg10 mi
3:53 AM50 °FPassing clouds.8 mph86%29.98 "Hg10 mi
2:53 AM50 °FOvercast.8 mph86%29.98 "Hg10 mi
1:53 AM46 °FClear.6 mph93%29.97 "Hg8 mi
12:53 AM49 °FClear.9 mph90%29.97 "Hg10 mi
11:53 PM
Jan 26
49 °FClear.9 mph86%29.98 "Hg10 mi
10:53 PM50 °FClear.12 mph86%29.97 "Hg10 mi
9:53 PM50 °FClear.10 mph83%29.96 "Hg10 mi
8:53 PM52 °FClear.10 mph77%29.97 "Hg10 mi
7:53 PM48 °FClear.No wind80%29.96 "Hg10 mi
6:53 PM51 °FClear.5 mph77%29.95 "Hg10 mi
5:53 PM56 °FClear.8 mph65%29.93 "Hg10 mi
Weather by CustomWeather, © 2014

See weather overviewHow to use our weather pages